FW0267 Weather Reports


time (UTC)temp
C
wind
direction
speed
KPH
gust
KPH
rain 1hr
cm
rain 24hr
cm
rain mn
cm
humidity
%
barometer
mb
20260510015049 18 130 0.0 0.0 0.00 0.00 0.00 15 1010.4
20260510014548 18 130 0.0 0.0 0.00 0.00 0.00 18 1010.4
20260510014048 18 130 0.0 0.0 0.00 0.00 0.00 20 1010.3
20260510013544 18 130 0.0 0.0 0.00 0.00 0.00 23 1010.2
20260510013044 19 130 0.0 0.0 0.00 0.00 0.00 26 1010.3
20260510012542 19 130 0.0 0.0 0.00 0.00 0.00 28 1010.3
20260510012041 19 130 0.0 0.0 0.00 0.00 0.00 30 1010.2
20260510011551 19 130 0.0 0.0 0.00 0.00 0.00 32 1010.1
20260510011037 20 130 0.0 0.0 0.00 0.00 0.00 34 1010.1
20260510010536 20 130 0.0 0.0 0.00 0.00 0.00 36 1010.0
20260510010036 20 130 0.0 0.0 0.00 0.00 0.00 39 1010.0
20260510005534 20 130 0.0 0.0 0.00 0.00 0.00 41 1010.0
20260510005032 20 130 0.0 0.0 0.00 0.00 0.00 43 1009.9
20260510004531 20 130 0.0 0.0 0.00 0.00 0.00 46 1009.9
20260510004028 21 130 0.0 0.0 0.00 0.00 0.00 47 1009.8
20260510003527 21 130 0.0 0.0 0.00 0.00 0.00 49 1009.7
20260510003052 21 130 0.0 0.0 0.00 0.00 0.00 49 1009.7
20260510002527 21 130 0.0 0.0 0.00 0.00 0.00 50 1009.7
20260510002022 21 130 0.0 0.0 0.00 0.00 0.00 51 1009.6
20260510001523 21 130 0.0 0.0 0.00 0.00 0.00 51 1009.5
20260510001020 22 130 0.0 0.0 0.00 0.00 0.00 52 1009.5
20260510000519 22 130 0.0 0.0 0.00 0.00 0.00 52 1009.4
20260510000017 22 130 0.0 0.0 0.00 0.00 0.00 52 1009.3
20260509235515 22 130 0.0 0.0 0.00 0.00 0.00 52 1009.3
20260509235014 22 130 0.0 0.0 0.00 0.00 0.00 52 1009.2
20260509234522 22 130 0.0 0.0 0.00 0.00 0.00 52 1009.1
20260509234010 22 130 0.0 0.0 0.00 0.00 0.00 52 1009.1
20260509233511 22 130 0.0 0.0 0.00 0.00 0.00 52 1009.2
20260509233012 22 130 0.0 0.0 0.00 0.00 0.00 52 1009.2
20260509232507 22 130 0.0 0.0 0.00 0.00 0.00 52 1009.2
20260509232006 22 130 0.0 0.0 0.00 0.00 0.00 51 1009.2
20260509231504 23 129 0.0 0.0 0.00 0.00 0.00 51 1009.2
20260509231002 23 129 0.0 0.0 0.00 0.00 0.00 52 1009.1
20260509230601 23 129 0.0 0.0 0.00 0.00 0.00 51 1009.1
20260509230109 23 129 0.0 0.0 0.00 0.00 0.00 51 1009.1
20260509225558 23 129 0.0 0.0 0.00 0.00 0.00 51 1009.2
20260509225056 23 129 0.0 4.8 0.00 0.00 0.00 51 1009.0
20260509224555 23 129 0.0 4.8 0.00 0.00 0.00 51 1008.9
20260509224054 23 158 0.0 3.2 0.00 0.00 0.00 50 1009.0
20260509223552 23 213 0.0 3.2 0.00 0.00 0.00 50 1009.0
20260509223051 23 213 0.0 3.2 0.00 0.00 0.00 50 1009.0
20260509222549 23 213 0.0 0.0 0.00 0.00 0.00 50 1009.0
20260509222047 23 213 0.0 0.0 0.00 0.00 0.00 49 1009.0
20260509221546 23 213 0.0 4.8 0.00 0.00 0.00 49 1009.1
20260509221045 23 213 0.0 4.8 0.00 0.00 0.00 48 1009.0
20260509220543 23 213 0.0 4.8 0.00 0.00 0.00 49 1009.0
20260509220042 23 194 1.6 6.4 0.00 0.00 0.00 50 1009.0
20260509215543 23 196 0.0 6.4 0.00 0.00 0.00 50 1008.9
20260509215040 23 161 0.0 4.8 0.00 0.00 0.00 51 1008.9
20260509214537 23 115 0.0 4.8 0.00 0.00 0.00 51 1008.8
20260509214039 23 329 0.0 3.2 0.00 0.00 0.00 52 1008.7
20260509213534 23 329 0.0 4.8 0.00 0.00 0.00 52 1008.8
20260509213035 23 329 0.0 4.8 0.00 0.00 0.00 51 1008.8
20260509212535 23 277 0.0 3.2 0.00 0.00 0.00 50 1008.8
20260509212032 23 277 0.0 8.0 0.00 0.00 0.00 50 1008.8
20260509211528 23 277 1.6 8.0 0.00 0.00 0.00 49 1008.9
20260509211027 23 209 0.0 6.4 0.00 0.00 0.00 50 1008.8
20260509210526 23 209 1.6 6.4 0.00 0.00 0.00 49 1008.8
20260509210025 23 209 1.6 6.4 0.00 0.00 0.00 49 1008.9
20260509205522 23 72 1.6 6.4 0.00 0.00 0.00 49 1008.9
20260509205021 23 172 3.2 6.4 0.00 0.00 0.00 49 1008.7
20260509204519 24 234 1.6 9.7 0.00 0.00 0.00 49 1008.6
20260509204018 24 144 3.2 12.9 0.00 0.00 0.00 48 1008.6
20260509203516 24 192 3.2 9.7 0.00 0.00 0.00 48 1008.5
20260509203020 24 195 3.2 11.3 0.00 0.00 0.00 49 1008.5
20260509202513 24 163 1.6 16.1 0.00 0.00 0.00 48 1008.6
20260509202012 25 201 3.2 16.1 0.00 0.00 0.00 48 1008.6
20260509201511 25 221 1.6 4.8 0.00 0.00 0.00 47 1008.8
20260509201009 25 128 1.6 9.7 0.00 0.00 0.00 46 1008.9
20260509200508 25 145 1.6 9.7 0.00 0.00 0.00 45 1009.0
20260509200008 25 187 3.2 6.4 0.00 0.00 0.00 45 1009.0
20260509195508 25 200 1.6 16.1 0.00 0.00 0.00 47 1009.0
20260509195003 25 167 3.2 16.1 0.00 0.00 0.00 46 1009.1
20260509194509 25 178 1.6 11.3 0.00 0.00 0.00 47 1009.2
20260509194100 25 163 1.6 6.4 0.00 0.00 0.00 47 1009.4
20260509193559 25 229 1.6 4.8 0.00 0.00 0.00 45 1009.4
20260509193057 25 229 1.6 6.4 0.00 0.00 0.00 47 1009.4
20260509192556 25 230 1.6 9.7 0.00 0.00 0.00 47 1009.4
20260509192055 24 165 1.6 9.7 0.00 0.00 0.00 46 1009.5
20260509191554 24 190 1.6 4.8 0.00 0.00 0.00 46 1009.5
20260509191054 25 146 1.6 6.4 0.00 0.00 0.00 45 1009.4
20260509190554 25 199 3.2 6.4 0.00 0.00 0.00 45 1009.5
20260509190049 25 249 1.6 6.4 0.00 0.00 0.00 42 1009.6
20260509185548 26 248 1.6 6.4 0.00 0.00 0.00 42 1009.7
20260509185045 26 252 1.6 9.7 0.00 0.00 0.00 42 1009.6
20260509184545 26 260 1.6 9.7 0.00 0.00 0.00 45 1009.8
20260509184043 26 225 3.2 8.0 0.00 0.00 0.00 44 1009.7
20260509183545 25 219 1.6 8.0 0.00 0.00 0.00 43 1009.9
20260509183057 25 207 1.6 4.8 0.00 0.00 0.00 46 1009.9
20260509182538 25 207 1.6 6.4 0.00 0.00 0.00 46 1010.0
20260509182041 25 207 1.6 8.0 0.00 0.00 0.00 44 1010.1
20260509181544 25 227 3.2 8.0 0.00 0.00 0.00 44 1010.1
20260509181034 25 118 1.6 8.0 0.00 0.00 0.00 44 1010.3
20260509180532 25 182 3.2 8.0 0.00 0.00 0.00 43 1010.2
20260509180034 25 224 1.6 9.7 0.00 0.00 0.00 44 1010.1
20260509175531 25 155 1.6 12.9 0.00 0.00 0.00 45 1010.1
20260509175029 25 157 3.2 12.9 0.00 0.00 0.00 43 1010.4
20260509174526 25 313 1.6 6.4 0.00 0.00 0.00 46 1010.5
20260509174025 25 286 1.6 8.0 0.00 0.00 0.00 44 1010.5
20260509173524 25 302 3.2 12.9 0.00 0.00 0.00 46 1010.3
20260509173025 25 150 3.2 12.9 0.00 0.00 0.00 45 1010.5
20260509172521 25 242 1.6 6.4 0.00 0.00 0.00 46 1010.4
20260509172020 25 135 1.6 6.4 0.00 0.00 0.00 44 1010.4
20260509171520 25 136 3.2 8.0 0.00 0.00 0.00 46 1010.5
20260509171016 25 238 1.6 9.7 0.00 0.00 0.00 47 1010.6
20260509170515 25 154 0.0 11.3 0.00 0.00 0.00 47 1010.6
20260509170014 24 220 1.6 11.3 0.00 0.00 0.00 46 1010.9
20260509165511 24 178 3.2 8.0 0.00 0.00 0.00 46 1010.8
20260509165010 24 257 3.2 8.0 0.00 0.00 0.00 48 1010.9
20260509164511 23 168 0.0 12.9 0.00 0.00 0.00 49 1011.0
20260509164007 23 207 4.8 14.5 0.00 0.00 0.00 48 1011.3
20260509163508 23 182 1.6 14.5 0.00 0.00 0.00 48 1011.1
20260509163004 23 84 3.2 12.9 0.00 0.00 0.00 47 1011.0
20260509162503 23 236 1.6 8.0 0.00 0.00 0.00 49 1011.0
20260509162102 23 239 1.6 8.0 0.00 0.00 0.00 49 1011.0
20260509161600 23 208 1.6 6.4 0.00 0.00 0.00 50 1010.9
20260509161058 23 206 1.6 8.0 0.00 0.00 0.00 49 1011.2
20260509160557 23 213 1.6 14.5 0.00 0.00 0.00 50 1011.3
20260509160058 22 232 3.2 14.5 0.00 0.00 0.00 50 1011.4
20260509155554 22 227 3.2 9.7 0.00 0.00 0.00 50 1011.4
20260509155053 22 44 3.2 11.3 0.00 0.00 0.00 50 1011.5
20260509154555 22 178 3.2 9.7 0.00 0.00 0.00 50 1011.7
20260509154050 22 214 1.6 8.0 0.00 0.00 0.00 50 1012.1
20260509153548 22 202 0.0 11.3 0.00 0.00 0.00 51 1012.0
20260509153047 22 219 3.2 11.3 0.00 0.00 0.00 50 1011.8
20260509152549 22 197 3.2 11.3 0.00 0.00 0.00 50 1011.9
20260509152044 22 154 3.2 8.0 0.00 0.00 0.00 50 1011.9
20260509151544 22 105 3.2 8.0 0.00 0.00 0.00 50 1012.2
20260509151041 22 142 3.2 9.7 0.00 0.00 0.00 49 1012.3
20260509150540 22 189 1.6 8.0 0.00 0.00 0.00 49 1012.2
20260509150039 21 200 1.6 11.3 0.00 0.00 0.00 48 1012.3
20260509145537 21 227 3.2 14.5 0.00 0.00 0.00 47 1012.4
20260509145039 21 263 3.2 14.5 0.00 0.00 0.00 48 1012.3
20260509144538 21 234 0.0 9.7 0.00 0.00 0.00 44 1012.4
20260509144034 21 223 3.2 12.9 0.00 0.00 0.00 42 1012.7
20260509143531 20 74 3.2 12.9 0.00 0.00 0.00 43 1012.8
20260509143030 20 224 3.2 6.4 0.00 0.00 0.00 39 1013.1
20260509142527 20 221 1.6 6.4 0.00 0.00 0.00 41 1013.2
20260509142026 20 190 1.6 8.0 0.00 0.00 0.00 36 1013.0
20260509141525 20 130 3.2 9.7 0.00 0.00 0.00 33 1013.1
20260509141024 19 83 1.6 8.0 0.00 0.00 0.00 30 1013.1
20260509140522 19 209 3.2 8.0 0.00 0.00 0.00 28 1013.1
20260509140020 19 193 1.6 8.0 0.00 0.00 0.00 17 1012.9
20260509135519 18 169 1.6 11.3 0.00 0.00 0.00 12 1013.0
20260509135018 18 224 1.6 11.3 0.00 0.00 0.00 9 1013.1
20260509134516 18 211 3.2 8.0 0.00 0.00 0.00 1 1013.1
20260509134014 17 143 1.6 8.0 0.00 0.00 0.00 1 1013.3
20260509133513 17 171 3.2 8.0 0.00 0.00 0.00 1 1013.5
20260509133012 17 209 1.6 12.9 0.00 0.00 0.00 1 1013.5
20260509132511 17 180 1.6 6.4 0.00 0.00 0.00 1 1013.7
20260509132010 17 178 1.6 11.3 0.00 0.00 0.00 1 1013.7
20260509131508 17 165 3.2 14.5 0.00 0.00 0.00 1 1013.6
20260509131009 16 162 0.0 14.5 0.00 0.00 0.00 1 1013.5
20260509130505 16 185 1.6 4.8 0.00 0.00 0.00 1 1013.5
20260509130007 16 181 1.6 4.8 0.00 0.00 0.00 1 1013.5
20260509125504 16 170 0.0 4.8 0.00 0.00 0.00 1 1013.4
20260509125059 15 155 1.6 9.7 0.00 0.00 0.00 1 1013.4
20260509124602 15 131 1.6 9.7 0.00 0.00 0.00 1 1013.4
20260509124057 15 171 0.0 3.2 0.00 0.00 0.00 1 1013.5
20260509123555 15 171 0.0 6.4 0.00 0.00 0.00 1 1013.5
20260509123055 14 44 1.6 9.7 0.00 0.00 0.00 1 1013.5
20260509122553 13 148 0.0 4.8 0.00 0.00 0.00 1 1013.5
20260509122050 13 148 0.0 4.8 0.00 0.00 0.00 1 1013.5
20260509121550 13 128 0.0 3.2 0.00 0.00 0.00 1 1013.6
20260509121050 13 128 0.0 3.2 0.00 0.00 0.00 1 1013.7
20260509120547 12 113 0.0 3.2 0.00 0.00 0.00 1 1013.8
20260509120052 12 116 1.6 4.8 0.00 0.00 0.00 1 1013.7
20260509115543 12 125 1.6 4.8 0.00 0.00 0.00 1 1013.5
20260509115046 12 135 1.6 4.8 0.00 0.00 0.00 1 1013.5
20260509114540 11 121 1.6 4.8 0.00 0.00 0.00 1 1013.4
20260509114039 11 117 1.6 4.8 0.00 0.00 0.00 1 1013.4
20260509113537 11 144 0.0 3.2 0.00 0.00 0.00 1 1013.3
20260509113037 11 144 0.0 3.2 0.00 0.00 0.00 1 1013.4
20260509112535 11 144 0.0 3.2 0.00 0.00 0.00 1 1013.5
20260509112033 10 144 0.0 0.0 0.00 0.00 0.00 1 1013.4
20260509111532 10 144 0.0 0.0 0.00 0.00 0.00 1 1013.3
20260509111031 10 144 0.0 0.0 0.00 0.00 0.00 1 1013.3
20260509110528 10 144 0.0 0.0 0.00 0.00 0.00 1 1013.3
20260509110030 10 144 0.0 0.0 0.00 0.00 0.00 1 1013.4
20260509105528 10 144 0.0 0.0 0.00 0.00 0.00 1 1013.3
20260509105026 10 144 0.0 0.0 0.00 0.00 0.00 1 1013.4
20260509104534 10 144 0.0 0.0 0.00 0.00 0.00 1 1013.3
20260509104021 10 144 0.0 0.0 0.00 0.00 0.00 1 1013.4
20260509103519 10 144 0.0 0.0 0.00 0.00 0.00 1 1013.4
20260509103018 10 144 0.0 0.0 0.00 0.00 0.00 1 1013.4
20260509102516 10 144 0.0 0.0 0.00 0.00 0.00 1 1013.3
20260509102015 10 144 0.0 0.0 0.00 0.00 0.00 1 1013.3
20260509101515 10 144 0.0 0.0 0.00 0.00 0.00 1 1013.2
20260509101017 10 144 0.0 0.0 0.00 0.00 0.00 1 1013.3
20260509100511 10 144 0.0 0.0 0.00 0.00 0.00 1 1013.3
20260509100010 10 144 0.0 0.0 0.00 0.00 0.00 1 1013.3
20260509095508 10 144 0.0 0.0 0.00 0.00 0.00 1 1013.2
20260509095007 10 144 0.0 0.0 0.00 0.00 0.00 1 1013.2
20260509094504 11 144 0.0 0.0 0.00 0.00 0.00 1 1013.3
20260509094004 11 144 0.0 0.0 0.00 0.00 0.00 1 1013.3
20260509093503 11 144 0.0 0.0 0.00 0.00 0.00 1 1013.3
20260509092559 11 144 0.0 0.0 0.00 0.00 0.00 1 1013.3
20260509092059 11 144 0.0 0.0 0.00 0.00 0.00 1 1013.4
20260509091557 11 144 0.0 0.0 0.00 0.00 0.00 1 1013.5
20260509091055 11 144 0.0 0.0 0.00 0.00 0.00 1 1013.5
20260509090554 11 144 0.0 0.0 0.00 0.00 0.00 1 1013.4
20260509090052 11 144 0.0 0.0 0.00 0.00 0.00 1 1013.5
20260509085550 11 144 0.0 0.0 0.00 0.00 0.00 1 1013.3
20260509085050 11 144 0.0 1.6 0.00 0.00 0.00 1 1013.3
20260509084554 11 144 0.0 3.2 0.00 0.00 0.00 1 1013.2
20260509084046 11 144 0.0 3.2 0.00 0.00 0.00 1 1013.1
20260509083544 11 144 0.0 3.2 0.00 0.00 0.00 1 1013.2
20260509083042 11 144 0.0 3.2 0.00 0.00 0.00 1 1013.2
20260509082541 12 157 0.0 0.0 0.00 0.00 0.00 1 1013.3
20260509082043 12 157 0.0 0.0 0.00 0.00 0.00 1 1013.2
20260509081542 12 157 0.0 0.0 0.00 0.00 0.00 1 1013.1
20260509081036 12 157 0.0 0.0 0.00 0.00 0.00 1 1013.1
20260509080535 12 157 0.0 0.0 0.00 0.00 0.00 1 1013.2
20260509080048 12 157 0.0 0.0 0.00 0.00 0.00 1 1013.2
20260509075534 12 157 0.0 0.0 0.00 0.00 0.00 1 1013.3
20260509075033 12 157 0.0 0.0 0.00 0.00 0.00 1 1013.3
20260509074530 12 157 0.0 0.0 0.00 0.00 0.00 1 1013.4
20260509074028 12 157 0.0 0.0 0.00 0.00 0.00 1 1013.5
20260509073530 12 157 0.0 0.0 0.00 0.00 0.00 1 1013.5
20260509073028 12 157 0.0 0.0 0.00 0.00 0.00 1 1013.5
20260509072524 12 157 0.0 0.0 0.00 0.00 0.00 1 1013.4
20260509072022 12 157 0.0 0.0 0.00 0.00 0.00 1 1013.2
20260509071521 12 157 0.0 0.0 0.00 0.00 0.00 1 1013.3
20260509071020 12 157 0.0 0.0 0.00 0.00 0.00 1 1013.3
20260509070519 12 157 0.0 0.0 0.00 0.00 0.00 1 1013.5
20260509070017 12 157 0.0 3.2 0.00 0.00 0.00 1 1013.5
20260509065515 12 157 0.0 4.8 0.00 0.00 0.00 1 1013.5
20260509065014 12 157 0.0 4.8 0.00 0.00 0.00 1 1013.7
20260509064512 12 150 0.0 3.2 0.00 0.00 0.00 1 1013.9
20260509064013 12 153 0.0 0.0 0.00 0.00 0.00 1 1014.0
20260509063509 12 153 0.0 0.0 0.00 0.00 0.00 1 1014.1
20260509063012 12 153 0.0 3.2 0.00 0.00 0.00 1 1014.2
20260509062508 12 153 0.0 3.2 0.00 0.00 0.00 3 1014.3
20260509062005 12 153 1.6 4.8 0.00 0.00 0.00 9 1014.5
20260509061513 12 155 0.0 4.8 0.00 0.00 0.00 13 1014.6
20260509061005 12 155 0.0 3.2 0.00 0.00 0.00 17 1014.6
20260509060502 13 161 0.0 3.2 0.00 0.00 0.00 21 1014.6
20260509060001 13 161 1.6 4.8 0.00 0.00 0.00 25 1014.6
20260509055600 13 161 1.6 4.8 0.00 0.00 0.00 27 1014.6
20260509055103 13 157 0.0 3.2 0.00 0.00 0.00 31 1014.5
20260509054604 13 157 0.0 8.0 0.00 0.00 0.00 33 1014.5
20260509054101 13 157 0.0 8.0 0.00 0.00 0.00 36 1014.6
20260509053556 13 157 1.6 4.8 0.00 0.00 0.00 38 1014.6
20260509053103 13 155 0.0 4.8 0.00 0.00 0.00 40 1014.6
20260509052554 13 165 0.0 11.3 0.00 0.00 0.00 42 1014.3
20260509052054 13 165 1.6 11.3 0.00 0.00 0.00 44 1014.5
20260509051601 13 171 0.0 1.6 0.00 0.00 0.00 45 1014.4
20260509051053 13 171 0.0 6.4 0.00 0.00 0.00 47 1014.4
20260509050555 13 171 1.6 8.0 0.00 0.00 0.00 47 1014.3
20260509050054 13 164 0.0 3.2 0.00 0.00 0.00 49 1014.4
20260509045551 13 115 0.0 0.0 0.00 0.00 0.00 50 1014.3
20260509045051 13 115 0.0 0.0 0.00 0.00 0.00 51 1014.3
20260509044549 13 115 0.0 0.0 0.00 0.00 0.00 52 1014.2
20260509044047 13 115 0.0 0.0 0.00 0.00 0.00 52 1014.2
20260509043548 13 115 0.0 0.0 0.00 0.00 0.00 53 1014.1
20260509043047 13 115 0.0 0.0 0.00 0.00 0.00 54 1014.1
20260509042546 13 115 0.0 0.0 0.00 0.00 0.00 54 1014.2
20260509042046 13 115 0.0 0.0 0.00 0.00 0.00 55 1014.1
20260509041546 13 115 0.0 0.0 0.00 0.00 0.00 55 1014.1
20260509041046 13 115 0.0 1.6 0.00 0.00 0.00 55 1014.2
20260509040546 13 115 0.0 3.2 0.00 0.00 0.00 55 1014.1
20260509040044 13 115 0.0 3.2 0.00 0.00 0.00 55 1014.1
20260509035544 13 107 0.0 0.0 0.00 0.00 0.00 55 1014.3
20260509035041 13 107 0.0 0.0 0.00 0.00 0.00 54 1014.2
20260509034544 13 107 0.0 0.0 0.00 0.00 0.00 54 1014.2
20260509034037 13 107 0.0 0.0 0.00 0.00 0.00 53 1014.3
20260509033536 13 107 0.0 0.0 0.00 0.00 0.00 52 1014.3
20260509033035 13 107 0.0 0.0 0.00 0.00 0.00 53 1014.4
20260509032534 13 107 0.0 0.0 0.00 0.00 0.00 54 1014.4
20260509032032 13 107 0.0 0.0 0.00 0.00 0.00 55 1014.4
20260509031533 13 107 0.0 0.0 0.00 0.00 0.00 56 1014.4
20260509031029 13 107 0.0 3.2 0.00 0.00 0.00 56 1014.4
20260509030528 13 128 0.0 3.2 0.00 0.00 0.00 56 1014.3
20260509030027 13 192 0.0 1.6 0.00 0.00 0.00 55 1014.2
20260509025526 13 192 0.0 1.6 0.00 0.00 0.00 56 1014.3
20260509025024 13 192 0.0 14.5 0.00 0.00 0.00 56 1014.4
20260509024522 13 153 0.0 14.5 0.00 0.00 0.00 56 1014.3
20260509024021 13 111 0.0 3.2 0.00 0.00 0.00 56 1014.5
20260509023519 13 111 0.0 3.2 0.00 0.00 0.00 56 1014.5
20260509023018 13 296 0.0 0.0 0.00 0.00 0.00 56 1014.4
20260509022517 13 296 0.0 0.0 0.00 0.00 0.00 56 1014.4
20260509022015 13 296 0.0 0.0 0.00 0.00 0.00 56 1014.4
20260509021514 13 292 0.0 0.0 0.00 0.00 0.00 56 1014.4
20260509021016 14 292 0.0 0.0 0.00 0.00 0.00 56 1014.4
20260509020510 14 292 0.0 0.0 0.00 0.00 0.00 56 1014.5
20260509020012 14 292 0.0 0.0 0.00 0.00 0.00 56 1014.5
20260509015508 14 292 0.0 0.0 0.00 0.00 0.00 55 1014.4